Weather History for Alice, TX

Change the Weather History Date:

Thursday, September 13, 2012

  Actual Average Record
Temperature  
Mean Temperature 86 °F -  
Max Temperature 100 °F 91 °F 102 °F (2011)
Min Temperature 73 °F 71 °F 66 °F (2003)
Cooling Degree Days 20    
Growing Degree Days 36 (Base 50)    
Moisture  
Dew Point 71 °F    
Average Humidity 65    
Maximum Humidity 93    
Minimum Humidity 32    
Precipitation  
Precipitation 0.00 in - - ()
Sea Level Pressure  
Sea Level Pressure 29.98 in    
Wind  
Wind Speed 9 mph (SE)    
Max Wind Speed 20 mph    
Max Gust Speed 24 mph    
Visibility 10 miles    
Events      
Averages and records for this station are not official NWS values.
T = Trace of Precipitation, MM = Missing Value Source: NWS Daily Summary

Daily Weather History Graph

Daily Weather History Graph

Search for Another Location

Airport:

Trip Planner

Search our weather history database for the weather conditions in past years. The results will help you decide how hot, cold, wet, or windy it might be!

Date:

Astronomy

Sep. 13, 2012 Rise Set
Actual Time 7:16 AM CDT 7:38 PM CDT
Civil Twilight 6:53 AM CDT 8:01 PM CDT
Nautical Twilight 6:25 AM CDT 8:29 PM CDT
Astronomical Twilight 5:57 AM CDT 8:57 PM CDT
Moon 4:47 AM CDT (9/13) 5:55 PM CDT (9/13)
Length of Visible Light 13h 08m
Length of Day
12h 21m
Waning Crescent, 7% of the Moon is Illuminated
Sep 13
Waning Crescent
Sep 15
New
Sep 22
First Quarter
Sep 29
Full
Oct 8
Last Quarter

Hourly Weather History & Observations

Time (CDT) Temp. Heat Index Dew Point Humidity Pressure Visibility Wind Dir Wind Speed Gust Speed Precip Events Conditions
12:53 AM 81.0 °F 86.7 °F 75.0 °F 82% 29.99 in 10.0 mi SSE 8.1 mph - N/A   Clear
1:53 AM 80.1 °F 85.1 °F 75.0 °F 85% 29.98 in 10.0 mi SSE 8.1 mph - N/A   Clear
2:53 AM 79.0 °F - 73.9 °F 84% 29.97 in 10.0 mi South 5.8 mph - N/A   Clear
3:53 AM 77.0 °F - 73.0 °F 88% 29.96 in 10.0 mi Calm Calm - N/A   Clear
4:53 AM 73.9 °F - 72.0 °F 93% 29.96 in 10.0 mi SSE 5.8 mph - N/A   Clear
5:53 AM 75.9 °F - 73.0 °F 91% 29.97 in 10.0 mi ESE 3.5 mph - N/A   Clear
6:53 AM 75.0 °F - 72.0 °F 90% 29.99 in 10.0 mi East 4.6 mph - N/A   Clear
7:53 AM 77.0 °F - 73.9 °F 90% 30.00 in 10.0 mi SE 3.5 mph - N/A   Clear
8:53 AM 82.9 °F 90.8 °F 75.9 °F 79% 30.01 in 10.0 mi SE 8.1 mph - N/A   Clear
9:53 AM 88.0 °F 97.5 °F 75.0 °F 65% 30.02 in 10.0 mi South 16.1 mph 24.2 mph N/A   Scattered Clouds
10:53 AM 90.0 °F 96.4 °F 71.1 °F 54% 30.02 in 10.0 mi South 18.4 mph 23.0 mph N/A   Scattered Clouds
11:53 AM 91.0 °F 96.6 °F 70.0 °F 50% 30.01 in 10.0 mi SSW 15.0 mph - 0.00 in   Clear
12:53 PM 95.0 °F 100.7 °F 69.1 °F 43% 29.99 in 10.0 mi South 13.8 mph 20.7 mph N/A   Partly Cloudy
1:53 PM 96.1 °F 98.8 °F 64.9 °F 36% 29.98 in 10.0 mi SSW 9.2 mph 21.9 mph N/A   Clear
2:53 PM 98.1 °F 101.2 °F 64.9 °F 34% 29.95 in 10.0 mi ESE 11.5 mph 23.0 mph N/A   Scattered Clouds
3:53 PM 97.0 °F 98.3 °F 63.0 °F 32% 29.93 in 10.0 mi SE 17.3 mph 24.2 mph N/A   Mostly Cloudy
4:53 PM 97.0 °F 99.3 °F 64.0 °F 34% 29.90 in 10.0 mi SSE 13.8 mph 20.7 mph N/A   Clear
5:53 PM 96.1 °F 99.3 °F 66.0 °F 37% 29.90 in 10.0 mi SE 17.3 mph 23.0 mph N/A   Partly Cloudy
6:53 PM 91.0 °F 93.8 °F 66.0 °F 44% 29.94 in 10.0 mi SE 19.6 mph - N/A   Clear
7:53 PM 86.0 °F 88.8 °F 66.9 °F 53% 29.97 in 10.0 mi SE 18.4 mph - N/A   Clear
8:53 PM 82.9 °F 86.5 °F 69.1 °F 63% 30.01 in 10.0 mi SE 13.8 mph - N/A   Clear
9:53 PM 82.0 °F 86.7 °F 72.0 °F 71% 30.05 in 10.0 mi SE 9.2 mph - N/A   Clear
10:53 PM 82.0 °F 87.4 °F 73.0 °F 74% 30.06 in 10.0 mi ESE 9.2 mph - N/A   Clear
11:53 PM 81.0 °F 86.2 °F 73.9 °F 79% 30.07 in 10.0 mi East 9.2 mph - N/A   Clear